Hourly Data Report for September 18, 2017

All times are specified in Local Standard Time (LST). Add 1 hour to adjust for Daylight Saving Time where and when it is observed.

TORONTO INTL A
ONTARIO

43°40'36.000" N
79°37'50.000" W
173.40 m
6158731
71624
YYZ

Download Data

Hourly Data (September 2017)
Hourly Data Report for September 18, 2017
Temp Definition
°C
Dew Point Temp Definition
°C
Rel Hum Definition
%
Wind Dir Definition
10's deg

Wind Spd Definition
km/h
Visibility Definition
km
Stn Press Definition
kPa
Hmdx Definition


Wind Chill Definition


Weather Definition


TIME
00:00 Legend Double Dagger 19.2 18.0 93 14 4 24.1 99.77     LegendNANA
01:00 Legend Double Dagger 19.2 18.1 93 36 1 19.3 99.77     Clear
02:00 Legend Double Dagger 18.4 17.5 94 0 1 16.1 99.73     LegendNANA
03:00 Legend Double Dagger 17.7 16.5 93 2 4 16.1 99.71     LegendNANA
04:00 Legend Double Dagger 17.3 15.8 91 5 3 16.1 99.71     Mainly Clear
05:00 Legend Double Dagger 17.6 16.2 91 11 3 16.1 99.73     LegendNANA
06:00 Legend Double Dagger 17.3 15.9 92 2 7 6.4 99.75     Fog
07:00 Legend Double Dagger 17.5 16.0 90 36 1 6.4 99.79     Fog
08:00 Legend Double Dagger 20.5 18.5 88 16 4 9.7 99.77 27   Fog
09:00 Legend Double Dagger 22.6 18.6 77 13 8 12.9 99.77 29   LegendNANA
10:00 Legend Double Dagger 23.7 18.5 73 17 9 16.1 99.77 30   Mostly Cloudy
11:00 Legend Double Dagger 24.0 18.7 72 14 15 16.1 99.78 31   LegendNANA
12:00 Legend Double Dagger 24.4 18.2 68 15 12 19.3 99.75 31   LegendNANA
13:00 Legend Double Dagger 24.8 18.2 66 14 15 19.3 99.70 31   Mostly Cloudy
14:00 Legend Double Dagger 25.6 19.2 67 16 12 19.3 99.66 33   LegendNANA
15:00 Legend Double Dagger 27.3 18.6 59 18 13 24.1 99.62 34   LegendNANA
16:00 Legend Double Dagger 26.5 18.6 62 15 16 24.1 99.61 33   Mostly Cloudy
17:00 Legend Double Dagger 24.9 18.3 66 15 14 24.1 99.59 31   LegendNANA
18:00 Legend Double Dagger 23.0 17.6 71 31 5 24.1 99.63 29   LegendNANA
19:00 Legend Double Dagger 21.6 18.5 82 35 17 24.1 99.65 28   Mostly Cloudy
20:00 Legend Double Dagger 21.4 18.4 83 36 18 24.1 99.68 28   LegendNANA
21:00 Legend Double Dagger 21.1 18.4 85 1 12 24.1 99.67 27   LegendNANA
22:00 Legend Double Dagger 20.6 18.4 87 2 13 24.1 99.67 27   Mostly Cloudy
23:00 Legend Double Dagger 20.1 18.3 89 35 14 24.1 99.68 26   LegendNANA

Notes on Data Quality.

Legend

  • E = Estimated
  • M = Missing
  • NA = Not Available
  • ‡ = Partner data that is not subject to review by the National Climate Archives
Date modified: